Regional Weather Roundup
Issued by NWS Green Bay, WI

Home | Current Version | Previous Version | Text Only | Print | Product List | Glossary On
Versions: 1 2 3 4 5 6 7 8 9 10 11 12 13 14 15 16 17 18 19 20 21 22 23 24 25 26 27 28 29 30 31 32 33 34 35 36 37 38 39 40 41 42 43 44 45 46 47 48 49 50
000
ASUS43 KGRB 280310
RWRGRB

NORTH-CENTRAL AND NORTHEAST WISCONSIN REGIONAL WEATHER ROUNDUP
NATIONAL WEATHER SERVICE GREEN BAY WI
900 PM CST FRI FEB 27 2015

WIZ005-009-010>012-018-019-280400-
NORTH CENTRAL WISCONSIN

CITY           SKY/WX    TMP DP  RH WIND       PRES   REMARKS
IRONWOOD       CLEAR      9  -8  47 SW8       30.39R WCI  -4
MANITOWISH WTR CLEAR      3 -10  53 SW6       30.40R WCI  -8
ARBOR VITAE    CLEAR      6  -8  52 W5        30.41R WCI  -3
EAGLE RIVER    CLEAR      2 -11  54 SW6       30.40R WCI  -9
LAND O LAKES   CLEAR      4  -8  57 SW5       30.39R WCI  -5
RHINELANDER    CLEAR      3  -7  63 SW7       30.42R WCI  -9
PHILLIPS       CLEAR      4  -8  58 SW5       30.43R WCI  -5
ANTIGO         CLEAR      3  -6  65 W6        30.45R WCI  -8
TOMAHAWK       CLEAR      4  -6  65 CALM      30.45R
MERRILL        CLEAR      1  -6  70 CALM      30.47R
$$

WIZ013-073-280400-
NORTHEAST WISCONSIN

CITY           SKY/WX    TMP DP  RH WIND       PRES   REMARKS
IRON MOUNTAIN  CLEAR     10  -5  50 W7        30.41R WCI  -1
MARINETTE      CLEAR     10  -6  48 SW6       30.51R WCI   1
OCONTO         CLEAR      9  -6  52 SW6       30.53R WCI  -1
$$

WIZ017-030-035>037-045-280400-
CENTRAL WISCONSIN

CITY           SKY/WX    TMP DP  RH WIND       PRES   REMARKS
MEDFORD        CLEAR      3  -5  68 SW5       30.46R WCI  -6
WAUSAU         CLEAR      4  -4  69 CALM      30.48R
MOSINEE        NOT AVBL
MARSHFIELD     CLEAR      4  -7  60 W6        30.50R WCI  -7
WISC RAPIDS    CLEAR      7  -9  48 W6        30.54R WCI  -3
STEVENS POINT  CLEAR      6  -7  54 W5        30.52R WCI  -3
WAUPACA        CLEAR     10  -6  49 SW7       30.55R WCI  -1
SHAWANO        CLEAR     11  -5  47 SW3       30.53R
CLINTONVILLE   CLEAR     10  -6  48 SW5       30.53R WCI   2
$$

WIZ038-039-048-051-280400-
FOX VALLEY

CITY           SKY/WX    TMP DP  RH WIND       PRES   REMARKS
NWS GREEN BAY  CLEAR     11  -2  56 SW6       30.54R WCI   1
APPLETON       CLEAR     10  -6  48 SW9       30.54R WCI  -2
OSHKOSH        CLEAR     10  -4  53 SW5       30.55R WCI   2
FOND DU LAC    CLEAR      8  -3  61 SW9       30.56R WCI  -5
$$

WIZ022-050-052-280400-
EAST CENTRAL WISCONSIN

CITY           SKY/WX    TMP DP  RH WIND       PRES   REMARKS
STURGEON BAY   CLEAR     10  -6  48 SW6       30.53R WCI   1
MANITOWOC      CLEAR     10   0  63 W8        30.56R WCI  -2
SHEBOYGAN      CLEAR      7  -4  60 SW9       30.57R WCI  -7
$$

LMZ563-521-522-541>543-280400-
LAKESHORE

STATION/POSITION TIME  TEMP    WIND        PRES    VSBY  WAVE
                       AIR SEA DIR/SP/G                  HT/PER
                 (UTC) (F)     (DEG/KT/KT) (MB)    (MI)  (FT/S)
SHEBOYGAN LKSHOR 0300   12     230/ 11/ 14 1037.5R
KEWAUNEE LKSHORE 0300          220/  7/ 10   N/A
NORTHPORT PIER   0300   13     220/  6/ 12 1032.5S
SISTER BAY LKSHO 0300   13     250/ 12/ 15   N/A
CHAMBERS ISLAND  0300   12     210/  5/ 10 1032.8S
MENOMINEE LKSHOR 0300          220/  7       N/A
$$


USA.gov is the U.S. government's official web portal to all federal, state and local government web resources and services.